SCP
0 0 0 0 0 0 0 0 0 0 0 0 1 1 1 1 1 1 1 1 0 0 0 1 1 0 0 1 1 1 1 1 0 0 0 0 0 0 0 0 0 0 0
0 0 0 0 0 0 0 0 0 0 0 0 1 1 1 1 1 1 1 0 0 0 0 0 0 1 1 2 1 1 1 0 0 0 0 0 0 0 0 0 0 0 0
0 0 0 0 0 0 0 0 0 0 0 0 1 2 1 1 1 1 1 0 0 0 0 0 0 0 1 1 1 1 0 0 0 0 0 0 0 0 0 0 0 0 0
0 0 0 0 0 0 0 0 0 0 0 1 1 1 1 1 1 0 0 0 0 0 0 0 0 1 1 0 1 1 0 0 0 0 0 0 0 0 0 0 0 0 0
0 0 0 0 0 0 0 0 0 0 0 0 1 1 1 1 1 1 0 1 1 1 0 0 1 1 0 0 1 0 0 0 0 0 0 0 0 0 0 0 0 0 0
0 0 0 0 0 0 0 0 0 0 0 0 1 1 0 1 1 1 1 1 1 1 1 0 1 0 0 0 0 0 0 0 0 0 0 0 0 0 0 0 0 0 0
0 0 0 0 0 0 0 0 0 0 0 1 1 0 0 1 1 1 1 1 1 1 0 0 0 0 0 0 0 0 0 0 0 0 0 0 0 0 0 0 0 0 0
0 0 0 0 0 0 0 0 0 1 1 0 0 0 0 1 0 0 1 0 0 0 0 0 0 0 0 0 0 0 0 0 0 0 0 0 0 -0 -0 0 0 0 0
0 0 0 0 0 0 0 0 0 1 0 0 0 0 0 0 0 0 0 0 0 0 0 0 0 0 0 0 0 0 0 0 0 0 0 0 -0 -0 -0 -0 0 0 0
0 0 0 0 0 0 0 0 0 0 0 0 0 0 0 0 0 0 0 0 0 0 0 0 0 0 0 0 0 0 0 0 0 0 -0 0 0 0 0 0 0 0 0
0 0 0 0 0 0 0 0 0 0 0 0 0 0 0 0 0 0 0 0 0 0 0 0 0 0 0 0 0 0 0 0 0 0 0 0 0 0 0 -0 0 0 0
0 0 0 0 0 0 0 0 0 0 0 0 0 0 0 0 0 0 0 0 0 0 0 0 0 0 0 0 0 0 0 0 0 0 0 0 0 0 0 -0 0 0 0
0 0 0 0 0 0 0 0 0 -0 0 -0 -0 -0 0 0 0 0 0 0 0 0 0 0 0 0 0 0 0 0 0 0 0 -0 0 0 0 -0 0 -0 0 0 0
0 0 0 0 0 0 0 0 -0 -0 -0 -0 -0 0 0 0 0 0 0 0 0 0 0 0 0 0 0 0 0 0 0 0 0 -0 0 -0 -0 0 0 0 0 0 0
0 0 0 0 0 0 -0 -0 -0 -0 -0 -0 -0 0 0 0 0 0 0 0 0 0 0 0 0 0 0 0 0 0 0 0 -0 0 -0 0 0 0 0 0 0 0 0
0 0 0 0 0 0 -0 -0 -0 -0 -0 -0 -0 0 0 0 0 0 0 0 0 0 0 0 -0 -0 0 -0 -0 0 0 0 0 -0 -0 0 0 0 0 0 0 0 0
0 0 0 0 0 -0 -0 -0 -0 -0 -0 -0 -0 -0 -0 -0 -0 -0 -0 0 0 0 0 -0 -0 -0 -0 0 0 0 0 0 0 -0 -0 0 0 0 0 0 0 0 0
0 0 0 0 0 -0 -0 0 -0 -0 -0 -0 -0 -0 -0 -0 -0 -0 -0 -0 0 -0 0 -0 -0 -0 -0 -0 0 0 0 0 0 -0 -0 0 0 0 0 0 0 0 0
0 0 0 0 0 -0 -0 -0 -0 -0 0 -0 -0 -0 -0 -0 -0 -0 0 0 -0 0 0 0 -0 -0 -0 0 0 0 0 0 0 -0 -0 0 0 0 0 0 0 0 0
0 0 0 0 0 0 -0 -0 0 0 0 0 -0 -0 -0 -0 0 0 0 -0 0 0 0 0 -0 -0 -0 -0 0 0 0 0 0 0 0 -0 0 -0 0 -0 -0 0 0
0 0 0 0 0 0 -0 0 0 0 -0 -0 -0 -0 -0 -0 0 0 0 0 0 0 0 0 0 0 0 -0 0 0 0 0 0 0 0 0 0 0 -0 0 0 0 0
0 0 0 0 0 0 0 -0 0 0 0 0 -0 -0 -0 0 0 0 0 0 0 0 0 0 0 0 0 0 0 0 -0 0 0 0 0 -0 0 0 0 0 0 0 0
0 0 0 0 -0 -0 -0 -0 -0 0 0 -0 0 0 0 0 0 0 -0 0 0 0 0 0 0 0 0 -0 -0 0 -0 0 0 0 0 0 0 -0 -0 0 0 0 0
0 0 0 -0 -0 -0 -0 -0 -0 0 0 0 0 -0 0 0 -0 0 0 0 -0 -0 0 0 0 0 -0 0 0 0 0 0 0 0 0 0 0 -0 -0 -0 -0 0 0
0 0 -0 -0 -0 -0 -0 -0 -0 0 0 0 -0 -0 0 0 0 0 0 0 0 0 0 0 0 0 0 -0 0 0 0 0 0 0 0 0 0 0 0 0 0 -0 0
0 0 -0 -0 -0 0 0 -0 -0 0 0 -0 -0 0 0 0 0 0 0 -0 0 0 0 0 0 0 0 0 0 0 0 -0 0 0 0 0 0 0 0 0 0 -0 -0
Wind_Speed_500mb
68 67 87 81 73 65 55 53 47 44 45 43 49 52 55 58 62 62 62 51 41 33 37 43 50 49 53 44 36 28 24 31 34 38 40 35 34 35 33 32 32 33 31
68 70 80 74 71 67 60 51 48 47 52 51 47 46 48 54 55 57 50 34 30 33 37 38 39 44 43 43 32 28 30 34 35 31 29 18 14 21 28 28 28 31 31
70 76 80 71 60 55 53 49 51 48 46 53 52 46 47 45 46 48 43 33 32 30 33 32 31 38 38 34 29 29 33 33 31 28 18 9 9 5 10 27 26 29 29
65 85 83 76 65 55 53 52 57 55 55 52 51 49 46 44 42 32 30 31 31 32 31 34 35 34 31 26 24 31 32 29 21 24 27 27 16 8 6 17 28 29 27
71 68 71 75 72 71 70 65 57 56 53 41 43 41 41 38 29 26 31 36 35 31 33 36 32 29 22 24 30 29 26 23 23 22 21 27 24 14 6 9 17 32 20
49 57 57 48 43 39 37 42 47 49 46 38 33 33 31 27 28 37 43 40 36 35 33 32 29 27 24 27 26 23 22 22 21 21 23 22 21 24 22 8 7 21 18
36 38 39 41 36 35 38 42 38 35 32 30 29 28 23 22 31 42 46 43 35 38 33 30 27 24 24 25 22 19 18 17 16 16 20 24 23 19 18 16 15 19 27
35 37 36 32 32 32 28 20 23 28 33 36 36 32 31 33 40 43 39 30 40 34 28 30 25 23 24 22 20 17 17 17 14 16 16 18 20 22 20 22 22 24 24
42 30 24 28 20 15 25 31 38 43 43 42 40 39 38 40 38 37 35 37 33 27 24 24 23 21 19 19 19 18 19 18 16 15 17 18 19 21 25 23 21 21 21
26 8 18 23 27 36 41 44 43 44 45 43 44 45 42 40 38 38 35 31 27 24 21 19 18 18 16 15 15 19 21 22 23 20 19 18 19 20 25 24 17 24 17
9 10 23 37 43 44 46 46 45 47 47 47 47 45 43 40 35 32 31 27 23 19 17 21 20 16 10 7 12 16 20 24 25 28 24 20 19 21 24 28 25 21 18
9 6 28 44 46 48 48 49 49 50 49 49 48 43 39 36 34 32 27 24 21 22 24 24 18 11 5 7 12 15 19 27 25 28 23 17 19 22 23 26 26 24 19
9 10 27 36 41 46 50 51 52 51 51 48 44 41 35 30 27 25 25 25 28 30 27 19 11 5 4 10 12 16 23 24 23 29 29 20 19 24 24 25 26 26 26
7 13 23 26 33 44 49 53 56 52 48 43 39 37 34 31 27 24 26 33 32 30 21 15 10 3 5 11 13 17 15 14 22 25 26 21 21 20 21 22 24 30 32
13 20 24 27 33 39 48 52 54 49 44 41 41 37 31 26 23 24 32 34 34 24 18 14 5 2 8 12 11 8 12 19 26 25 23 21 21 22 19 23 28 36 39
20 26 29 31 38 43 44 50 50 47 45 45 39 32 27 23 23 27 32 33 30 21 17 11 5 5 11 12 8 9 12 15 21 21 22 25 23 22 20 22 33 40 42
22 30 36 36 39 44 44 44 47 47 46 39 32 27 27 23 26 23 36 37 26 19 14 8 1 7 12 10 7 10 11 13 16 18 24 27 24 20 23 28 38 37 35
24 36 37 39 42 44 45 43 45 46 39 29 23 20 22 24 31 34 39 32 23 17 13 8 2 6 8 7 7 11 11 12 16 14 22 21 24 23 31 40 40 33 27
27 38 38 42 44 46 46 48 44 37 30 24 20 20 20 29 33 35 31 26 21 19 15 8 3 5 6 6 8 9 10 14 15 13 18 32 27 26 38 47 47 42 34
30 39 41 43 46 47 52 48 42 35 28 21 19 21 20 27 29 31 29 25 21 19 14 9 4 2 4 7 8 6 11 16 18 19 21 22 28 29 39 49 49 53 49
33 38 44 45 47 51 51 46 40 36 24 18 23 23 22 28 25 26 28 20 16 15 15 11 7 2 6 8 10 10 12 15 16 24 30 32 28 37 43 47 50 47 48
36 42 44 46 49 50 49 44 45 31 25 19 24 23 25 29 25 20 19 15 13 14 16 15 11 8 10 11 12 12 12 15 25 39 39 38 30 39 42 41 43 46 43
38 42 46 49 50 51 49 47 42 34 27 24 24 28 28 27 21 15 14 10 12 14 16 17 15 14 14 16 15 14 18 20 35 40 38 35 34 36 39 40 42 45 54
37 44 49 53 54 51 51 45 39 32 30 27 28 29 27 24 19 15 9 8 9 11 13 17 17 17 20 22 22 17 25 27 37 41 38 36 38 36 40 39 46 49 57
37 41 46 53 54 52 48 45 39 34 32 30 27 27 24 20 16 15 12 15 18 14 11 12 16 19 20 22 21 16 28 35 39 44 44 44 47 46 46 48 48 56 52
10 28 43 48 51 55 49 46 40 35 36 35 31 26 22 18 14 14 20 22 22 19 17 16 17 18 21 23 24 20 27 33 38 43 45 47 48 50 47 43 41 41 41
Wind_Direction_500mb
274 275 279 279 279 275 270 268 283 287 292 282 269 256 250 249 248 247 252 255 257 250 235 224 224 221 224 230 226 239 251 261 265 271 278 277 268 261 254 245 240 236 225
274 275 279 282 277 269 260 266 277 291 289 283 275 260 250 251 249 245 249 249 240 227 215 215 214 212 214 212 225 243 257 262 260 267 274 276 267 249 242 234 237 225 214
271 277 280 276 277 272 258 262 280 286 281 272 265 254 247 250 246 244 242 230 220 204 203 202 195 191 191 204 228 251 258 258 264 259 236 246 247 206 237 221 214 210 211
263 269 270 272 271 272 271 272 275 278 280 269 252 245 245 244 246 250 233 208 197 192 189 168 174 184 197 211 248 252 259 258 247 250 239 231 240 236 186 202 203 205 211
259 264 266 271 270 269 270 271 268 268 266 262 242 236 235 236 235 223 196 186 181 178 164 174 179 187 203 236 250 261 262 251 239 235 236 229 227 220 175 148 208 207 215
267 267 276 278 269 261 258 257 256 254 253 243 228 222 225 219 205 187 177 171 169 168 170 177 187 200 222 243 258 257 250 246 239 234 235 230 230 232 229 191 149 202 203
281 273 271 273 261 256 258 259 246 237 225 208 198 187 180 177 183 174 170 165 170 169 175 182 192 218 236 251 247 241 240 239 236 237 237 238 234 234 232 211 182 188 201
293 296 270 266 250 254 249 215 193 180 172 165 163 155 154 154 164 164 163 159 160 162 171 186 208 229 246 238 224 231 230 232 230 235 233 234 233 227 213 200 181 167 176
308 287 248 232 231 190 151 153 151 152 151 153 151 146 142 151 153 154 149 147 151 164 183 203 224 238 218 216 227 232 226 227 228 230 234 235 227 212 207 194 193 180 165
311 235 193 183 157 147 147 146 147 147 147 147 145 143 146 149 149 150 151 154 163 177 198 212 210 190 196 209 223 232 230 229 226 234 235 221 215 202 201 201 189 181 177
348 171 157 150 149 147 146 144 145 145 142 143 143 145 146 147 150 154 157 163 173 185 191 173 170 171 191 225 240 240 241 227 231 224 231 224 210 204 195 194 193 186 187
346 169 154 152 150 146 146 146 145 142 142 143 143 143 145 149 152 157 165 173 177 171 159 153 156 168 218 254 265 250 251 236 223 213 209 215 203 193 193 195 198 200 183
337 169 155 154 149 146 147 146 144 144 144 143 144 143 145 150 157 166 174 174 165 154 148 146 154 162 278 290 291 279 273 263 232 215 205 205 194 189 189 189 189 193 182
280 180 161 153 153 148 147 145 143 145 143 142 141 137 133 138 146 153 158 157 154 149 146 148 154 332 321 327 317 307 270 221 185 184 198 200 198 192 199 197 189 181 167
243 193 178 157 154 151 149 148 147 146 142 138 138 139 137 136 144 149 154 155 154 148 147 154 107 24 360 350 0 17 138 163 173 170 181 192 199 202 206 202 189 178 176
235 197 184 168 161 158 155 151 149 148 143 141 145 149 147 145 153 157 162 157 154 149 141 140 112 24 3 10 44 92 130 154 172 187 195 193 196 197 202 195 186 180 178
228 193 182 176 167 161 159 157 154 153 153 154 160 165 170 161 161 165 164 157 149 156 167 151 111 13 1 18 79 125 132 143 166 189 192 184 181 184 176 150 167 173 180
211 192 180 172 168 163 162 161 161 159 161 165 174 179 170 165 158 150 154 154 154 165 167 188 270 354 14 38 94 139 148 140 147 170 176 176 167 163 159 150 158 160 165
198 189 177 169 167 167 167 166 169 166 167 172 180 171 158 160 165 163 167 165 166 176 186 201 236 340 37 75 116 134 164 155 146 137 158 174 165 157 157 157 148 147 155
185 176 168 166 169 169 171 173 177 174 177 179 174 162 151 156 162 171 174 170 172 187 198 199 235 340 84 106 117 89 150 153 146 148 146 154 157 155 158 157 157 151 153
176 171 166 165 169 171 175 178 180 183 181 180 169 159 151 155 160 165 173 175 189 199 203 207 212 160 123 121 112 104 139 150 148 139 140 144 152 155 153 156 152 149 148
168 170 162 166 172 173 175 179 182 181 182 176 159 155 153 163 166 170 180 192 205 210 209 205 199 168 144 138 119 104 126 134 133 130 126 127 137 153 150 152 150 146 145
170 166 163 165 170 174 178 181 183 185 188 164 148 155 159 169 172 168 170 187 203 198 199 193 186 166 155 150 133 119 131 132 135 127 120 121 136 150 150 150 149 149 151
172 163 173 170 168 172 176 177 183 184 179 163 154 159 168 177 181 182 171 159 172 169 182 187 180 169 165 167 154 143 142 140 140 127 127 130 138 145 144 143 144 154 152
161 168 181 182 177 178 180 183 190 189 183 169 160 162 172 182 184 180 159 137 130 124 124 147 169 171 168 164 161 146 158 155 151 140 136 136 141 143 148 155 159 158 156
120 186 196 188 188 189 186 187 194 188 185 180 172 172 179 185 183 167 149 137 127 117 111 123 141 152 152 154 149 145 154 157 160 155 149 144 145 146 151 155 159 162 162
Wind_Speed_850mb
68 67 87 81 73 65 55 53 47 44 45 43 49 52 55 58 62 62 62 51 41 33 37 43 50 49 53 44 36 28 24 31 34 38 40 35 34 35 33 32 32 33 31
68 70 80 74 71 67 60 51 48 47 52 51 47 46 48 54 55 57 50 34 30 33 37 38 39 44 43 43 32 28 30 34 35 31 29 18 14 21 28 28 28 31 31
70 76 80 71 60 55 53 49 51 48 46 53 52 46 47 45 46 48 43 33 32 30 33 32 31 38 38 34 29 29 33 33 31 28 18 9 9 5 10 27 26 29 29
65 85 83 76 65 55 53 52 57 55 55 52 51 49 46 44 42 32 30 31 31 32 31 34 35 34 31 26 24 31 32 29 21 24 27 27 16 8 6 17 28 29 27
71 68 71 75 72 71 70 65 57 56 53 41 43 41 41 38 29 26 31 36 35 31 33 36 32 29 22 24 30 29 26 23 23 22 21 27 24 14 6 9 17 32 20
49 57 57 48 43 39 37 42 47 49 46 38 33 33 31 27 28 37 43 40 36 35 33 32 29 27 24 27 26 23 22 22 21 21 23 22 21 24 22 8 7 21 18
36 38 39 41 36 35 38 42 38 35 32 30 29 28 23 22 31 42 46 43 35 38 33 30 27 24 24 25 22 19 18 17 16 16 20 24 23 19 18 16 15 19 27
35 37 36 32 32 32 28 20 23 28 33 36 36 32 31 33 40 43 39 30 40 34 28 30 25 23 24 22 20 17 17 17 14 16 16 18 20 22 20 22 22 24 24
42 30 24 28 20 15 25 31 38 43 43 42 40 39 38 40 38 37 35 37 33 27 24 24 23 21 19 19 19 18 19 18 16 15 17 18 19 21 25 23 21 21 21
26 8 18 23 27 36 41 44 43 44 45 43 44 45 42 40 38 38 35 31 27 24 21 19 18 18 16 15 15 19 21 22 23 20 19 18 19 20 25 24 17 24 17
9 10 23 37 43 44 46 46 45 47 47 47 47 45 43 40 35 32 31 27 23 19 17 21 20 16 10 7 12 16 20 24 25 28 24 20 19 21 24 28 25 21 18
9 6 28 44 46 48 48 49 49 50 49 49 48 43 39 36 34 32 27 24 21 22 24 24 18 11 5 7 12 15 19 27 25 28 23 17 19 22 23 26 26 24 19
9 10 27 36 41 46 50 51 52 51 51 48 44 41 35 30 27 25 25 25 28 30 27 19 11 5 4 10 12 16 23 24 23 29 29 20 19 24 24 25 26 26 26
7 13 23 26 33 44 49 53 56 52 48 43 39 37 34 31 27 24 26 33 32 30 21 15 10 3 5 11 13 17 15 14 22 25 26 21 21 20 21 22 24 30 32
13 20 24 27 33 39 48 52 54 49 44 41 41 37 31 26 23 24 32 34 34 24 18 14 5 2 8 12 11 8 12 19 26 25 23 21 21 22 19 23 28 36 39
20 26 29 31 38 43 44 50 50 47 45 45 39 32 27 23 23 27 32 33 30 21 17 11 5 5 11 12 8 9 12 15 21 21 22 25 23 22 20 22 33 40 42
22 30 36 36 39 44 44 44 47 47 46 39 32 27 27 23 26 23 36 37 26 19 14 8 1 7 12 10 7 10 11 13 16 18 24 27 24 20 23 28 38 37 35
24 36 37 39 42 44 45 43 45 46 39 29 23 20 22 24 31 34 39 32 23 17 13 8 2 6 8 7 7 11 11 12 16 14 22 21 24 23 31 40 40 33 27
27 38 38 42 44 46 46 48 44 37 30 24 20 20 20 29 33 35 31 26 21 19 15 8 3 5 6 6 8 9 10 14 15 13 18 32 27 26 38 47 47 42 34
30 39 41 43 46 47 52 48 42 35 28 21 19 21 20 27 29 31 29 25 21 19 14 9 4 2 4 7 8 6 11 16 18 19 21 22 28 29 39 49 49 53 49
33 38 44 45 47 51 51 46 40 36 24 18 23 23 22 28 25 26 28 20 16 15 15 11 7 2 6 8 10 10 12 15 16 24 30 32 28 37 43 47 50 47 48
36 42 44 46 49 50 49 44 45 31 25 19 24 23 25 29 25 20 19 15 13 14 16 15 11 8 10 11 12 12 12 15 25 39 39 38 30 39 42 41 43 46 43
38 42 46 49 50 51 49 47 42 34 27 24 24 28 28 27 21 15 14 10 12 14 16 17 15 14 14 16 15 14 18 20 35 40 38 35 34 36 39 40 42 45 54
37 44 49 53 54 51 51 45 39 32 30 27 28 29 27 24 19 15 9 8 9 11 13 17 17 17 20 22 22 17 25 27 37 41 38 36 38 36 40 39 46 49 57
37 41 46 53 54 52 48 45 39 34 32 30 27 27 24 20 16 15 12 15 18 14 11 12 16 19 20 22 21 16 28 35 39 44 44 44 47 46 46 48 48 56 52
10 28 43 48 51 55 49 46 40 35 36 35 31 26 22 18 14 14 20 22 22 19 17 16 17 18 21 23 24 20 27 33 38 43 45 47 48 50 47 43 41 41 41
Wind_Direction_850mb
274 275 279 279 279 275 270 268 283 287 292 282 269 256 250 249 248 247 252 255 257 250 235 224 224 221 224 230 226 239 251 261 265 271 278 277 268 261 254 245 240 236 225
274 275 279 282 277 269 260 266 277 291 289 283 275 260 250 251 249 245 249 249 240 227 215 215 214 212 214 212 225 243 257 262 260 267 274 276 267 249 242 234 237 225 214
271 277 280 276 277 272 258 262 280 286 281 272 265 254 247 250 246 244 242 230 220 204 203 202 195 191 191 204 228 251 258 258 264 259 236 246 247 206 237 221 214 210 211
263 269 270 272 271 272 271 272 275 278 280 269 252 245 245 244 246 250 233 208 197 192 189 168 174 184 197 211 248 252 259 258 247 250 239 231 240 236 186 202 203 205 211
259 264 266 271 270 269 270 271 268 268 266 262 242 236 235 236 235 223 196 186 181 178 164 174 179 187 203 236 250 261 262 251 239 235 236 229 227 220 175 148 208 207 215
267 267 276 278 269 261 258 257 256 254 253 243 228 222 225 219 205 187 177 171 169 168 170 177 187 200 222 243 258 257 250 246 239 234 235 230 230 232 229 191 149 202 203
281 273 271 273 261 256 258 259 246 237 225 208 198 187 180 177 183 174 170 165 170 169 175 182 192 218 236 251 247 241 240 239 236 237 237 238 234 234 232 211 182 188 201
293 296 270 266 250 254 249 215 193 180 172 165 163 155 154 154 164 164 163 159 160 162 171 186 208 229 246 238 224 231 230 232 230 235 233 234 233 227 213 200 181 167 176
308 287 248 232 231 190 151 153 151 152 151 153 151 146 142 151 153 154 149 147 151 164 183 203 224 238 218 216 227 232 226 227 228 230 234 235 227 212 207 194 193 180 165
311 235 193 183 157 147 147 146 147 147 147 147 145 143 146 149 149 150 151 154 163 177 198 212 210 190 196 209 223 232 230 229 226 234 235 221 215 202 201 201 189 181 177
348 171 157 150 149 147 146 144 145 145 142 143 143 145 146 147 150 154 157 163 173 185 191 173 170 171 191 225 240 240 241 227 231 224 231 224 210 204 195 194 193 186 187
346 169 154 152 150 146 146 146 145 142 142 143 143 143 145 149 152 157 165 173 177 171 159 153 156 168 218 254 265 250 251 236 223 213 209 215 203 193 193 195 198 200 183
337 169 155 154 149 146 147 146 144 144 144 143 144 143 145 150 157 166 174 174 165 154 148 146 154 162 278 290 291 279 273 263 232 215 205 205 194 189 189 189 189 193 182
280 180 161 153 153 148 147 145 143 145 143 142 141 137 133 138 146 153 158 157 154 149 146 148 154 332 321 327 317 307 270 221 185 184 198 200 198 192 199 197 189 181 167
243 193 178 157 154 151 149 148 147 146 142 138 138 139 137 136 144 149 154 155 154 148 147 154 107 24 360 350 0 17 138 163 173 170 181 192 199 202 206 202 189 178 176
235 197 184 168 161 158 155 151 149 148 143 141 145 149 147 145 153 157 162 157 154 149 141 140 112 24 3 10 44 92 130 154 172 187 195 193 196 197 202 195 186 180 178
228 193 182 176 167 161 159 157 154 153 153 154 160 165 170 161 161 165 164 157 149 156 167 151 111 13 1 18 79 125 132 143 166 189 192 184 181 184 176 150 167 173 180
211 192 180 172 168 163 162 161 161 159 161 165 174 179 170 165 158 150 154 154 154 165 167 188 270 354 14 38 94 139 148 140 147 170 176 176 167 163 159 150 158 160 165
198 189 177 169 167 167 167 166 169 166 167 172 180 171 158 160 165 163 167 165 166 176 186 201 236 340 37 75 116 134 164 155 146 137 158 174 165 157 157 157 148 147 155
185 176 168 166 169 169 171 173 177 174 177 179 174 162 151 156 162 171 174 170 172 187 198 199 235 340 84 106 117 89 150 153 146 148 146 154 157 155 158 157 157 151 153
176 171 166 165 169 171 175 178 180 183 181 180 169 159 151 155 160 165 173 175 189 199 203 207 212 160 123 121 112 104 139 150 148 139 140 144 152 155 153 156 152 149 148
168 170 162 166 172 173 175 179 182 181 182 176 159 155 153 163 166 170 180 192 205 210 209 205 199 168 144 138 119 104 126 134 133 130 126 127 137 153 150 152 150 146 145
170 166 163 165 170 174 178 181 183 185 188 164 148 155 159 169 172 168 170 187 203 198 199 193 186 166 155 150 133 119 131 132 135 127 120 121 136 150 150 150 149 149 151
172 163 173 170 168 172 176 177 183 184 179 163 154 159 168 177 181 182 171 159 172 169 182 187 180 169 165 167 154 143 142 140 140 127 127 130 138 145 144 143 144 154 152
161 168 181 182 177 178 180 183 190 189 183 169 160 162 172 182 184 180 159 137 130 124 124 147 169 171 168 164 161 146 158 155 151 140 136 136 141 143 148 155 159 158 156
120 186 196 188 188 189 186 187 194 188 185 180 172 172 179 185 183 167 149 137 127 117 111 123 141 152 152 154 149 145 154 157 160 155 149 144 145 146 151 155 159 162 162